Location: Falniów
(50.3639°N, 19.9642°E)
Time: 08:26:38
(UTC+00:00)

Lacrosse 4 Rocket - Pass Details

Date: 18 January 2026
Orbit: 512 x 564 km, 68.0° (Epoch: 15 February)

Event Time Altitude Azimuth Distance (km) Brightness Sun altitude
Rises 03:22:12 0° 164° (SSE) 2,651 5.0 -29.7°
Reaches altitude 10° 03:25:19 10° 137° (SE) 1,758 4.3 -29.2°
Maximum altitude 03:27:15 13° 107° (ESE) 1,547 4.4 -28.8°
Drops below altitude 10° 03:29:12 10° 77° (ENE) 1,754 4.8 -28.5°
Sets 03:32:17 0° 51° (NE) 2,641 5.5 -28.0°
